Showing default

RIGIDSPHERE 2 (LCS 4), 5398

Orbit data source: Space-Track

RIGIDSPHERE 2 (LCS 4), 5398 is an American payload satellite in LEO that was launched on Sat, 07 Aug 1971 UTC via an ATLAS F launch vehicle from the Air Force Western Test Range (AFWTR). Payload-class satellites include a variety of spacecraft equipped with specific instruments for various scientific and technological missions. These include communications satellites like Starlink; space stations such as the ISS; scientific satellites like the Hubble; Earth observation satellites from companies like Planet Labs, Umbra, and HawkEye 360; GPS; miniature CubeSats for education and research; and military/defense satellites.

Loading next visibility...
Identifier
5398, 1971-067E
Orbit
LEO
Country
Flag of USUS
Related business
Manufacturer
ROHR/MITLL
Mission
Operational spacecraft
Bus & Motor
LCS, Unknown motor
Mass
~38 kg wet, ~38 kg dry
Launch date (UTC)
1971-08-07 (54 years ago)
Launch vehicle
ATLAS F
Launch site
Air Force Western Test Range (AFWTR)
Object type
Payload
Rocket body
Debris
Shape & HBR
Unknown
Radar Cross Section
Medium (>0.1 m² and <1 m²)

Expand to show TLE details & history
Last TLE update: 8 hours ago

TLE from 8 hours ago
0 RIGIDSPHERE 2 (LCS 4)
1 05398U 71067E   25346.94658683  .00001071  00000-0  34347-3 0  9998
2 05398  87.6213  30.4930 0062017 129.5243 231.1461 14.37563038847125
Epoch: 2025-12-12T22:43Z
TLE epoch observation values (Epoch: 2025-12-12T22:43:05.102Z)
Latitude
-0.00002°
Longitude
-32.15917°
Altitude
797.6 km
Speed
7.44 km/s
True Right ascension
02h 01m 58s
True Declination
0° 00' 00"
Sunlit
Object was in full shadow at epoch
Visualization orbit readout
Latitude
Unknown
Longitude
Unknown
Altitude
Unknown
Speed
Unknown
Apparent Right ascension
Unknown
Apparent Declination
Unknown
Sunlit
N/A
Visualization observer readout
Local Sidereal Time
05:23:52
Azimuth
Unknown
Elevation
Unknown
Doppler factor
Unknown
Orbital elements
Apogee altitude
807.791 km
Perigee altitude
719.21 km
Semi-major axis
7,141.638 km
Eccentricity
0.0062
Inclination
87.6213°
RAAN
30.493°
Arg. of periapsis
129.5243°
True anomaly
230.59536°
Mean anomaly
231.1461°
Eccentric anomaly
230.87046°
Mean motion
3.59622 °/min
Orbital period
100.11 mins
BSTAR
0.00034347
Loading maneuver chart data...
Computing Atmospheric mass density...
Loading historical data...
Loading historical data...
Loading historical data...
Loading historical data...
Loading historical data...
Loading historical data...
Loading historical data...

Documentation

Showing up to 5 results
|